Other Public Products
Issued by NWS Charleston, SC

Current Version | Previous Version | Graphics & Text | Print | Product List | Glossary On
Versions: 1 2 3 4 5 6 7 8 9 10 11 12 13 14 15 16 17 18 19 20 21 22 23 24 25 26 27 28 29 30 31 32 33 34 35 36 37 38 39 40 41 42 43 44 45 46 47 48 49 50
632
FPUS82 KCHS 180712
OPUCHS

TEST...KCHS/KSAV Gateway Observations...TEST
National Weather Service Charleston SC
300 AM EDT WED OCT 18 2017

NOTE: "fair" indicates few or no clouds below 12,000 feet with no
significant weather and/or obstructions to visibility.

SCZ050-WAZ558-NCZ071-TXZ119-213-PAZ071-DCZ001-FLZ074-172-MI076-
NYZ176-178-MAZ016-IL014-TNZ027-NJZ106-GAZ044-MD014-180800-

...Gateway Observations for Charleston International...

CITY           SKY/WX    TMP DP  RH WIND       PRES   REMARKS
Chas Airport   CLEAR     53  45  74 NE9       30.25S
Seattle        MOCLDY    50  43  77 S9        30.09F
Charlotte      CLEAR     43  42  97 N5        30.32F
Dallas DFW     CLEAR     57  43  59 SE6       30.14S
Dallas Love    CLEAR     59  42  53 SE6       30.16S
Philladelphia  CLEAR     49  37  63 W3        30.32F
Wash National  PTCLDY    49  43  80 CALM      30.34F
Baltimore      CLEAR     42  41  96 CALM      30.33S
Miami          CLOUDY    81  75  82 N5        29.98F
Detroit        PTCLDY    48  41  76 S5        30.21F
Newark         CLEAR     46  36  68 SW5       30.29F
Laguardia      CLEAR     54  36  50 W9        30.28S
J F K          CLEAR     52  40  63 W14       30.30S
Boston Logan   CLEAR     49  40  71 SW15      30.20F
Ft. Lauderdale LGT RAIN  77  76  96 N9        29.98F
Chicago O`Hare CLEAR     54  40  59 SW10      30.14S
Chicago Midway CLEAR     53  41  63 S6        30.16R
Houston Bush   CLEAR     56  52  86 CALM      30.16F
Houston Hobby  PTCLDY    58  50  75 CALM      30.15F
Nashville      CLEAR     46  44  93 S3        30.27F
Atlanta        CLEAR     52  44  74 E9        30.28F

$$

GAZ044-118-TXZ119-213-NCZ071-DCZ001-MDZ014-506-PAZ021-071-NJZ106-
NYZ176-178-MAZ106-OHZ011-021-055-MIZ076-KYZ091-ILZ014-INZ047-
MNZ060-ONZ431-180800-

...Gateway Observations for Savannah International...

CITY           SKY/WX    TMP DP  RH WIND       PRES   REMARKS
Savannah Arpt  CLEAR     56  46  69 N12       30.24S
Atlanta        CLEAR     52  44  74 E9        30.28F
Charlotte      CLEAR     43  42  97 N5        30.32F
Dallas DFW     CLEAR     57  43  59 SE6       30.14S
Houston Bush   CLEAR     56  52  86 CALM      30.16F
Wash National  PTCLDY    49  43  80 CALM      30.34F
Wash Dulles    CLEAR     41  38  89 CALM      30.33S
Baltimore      CLEAR     42  41  96 CALM      30.33S
Philadelphia   CLEAR     49  37  63 W3        30.32F
Newark         CLEAR     46  36  68 SW5       30.29F
Laguardia      CLEAR     54  36  50 W9        30.28S
J F K          CLEAR     52  40  63 W14       30.30S
Boston         CLEAR     49  40  71 SW15      30.20F
Pittsburg      CLEAR     48  39  71 CALM      30.30F
Akron          CLEAR     48  38  68 SW8       30.28S
Cleveland      PTCLDY    50  39  66 SE5       30.28R
Cincinnati     PTCLDY    46  41  82 S6        30.27S
Columbus       CLEAR     43  41  93 CALM      30.29S
Detroit        PTCLDY    48  41  76 S5        30.21F
Chicago O`Hare CLEAR     54  40  59 SW10      30.14S
Minneapolis    CLEAR     59  46  62 S9        29.88F
Indianapolis   CLEAR     46  40  79 CALM      30.24F
Toronto Canada CLEAR     52  43  71 W2        30.16R

$$




USA.gov is the U.S. government's official web portal to all federal, state and local government web resources and services.